Back to catalog

STARLINK-3781

AliveCommunicationsVLEO
NORAD 52272·PAYLOAD·🇺🇸 United States

Launched Apr 21, 2022 from Cape Canaveral Space Force Station

Loading…

Next Passes (next 24 hours)

TLE

FreshSource: CelesTrak SupGP

Epoch: Sep 15, 2026, 01:28 UTC

1 52272C 22041M   26258.06159722  .00043169  00000+0  13884-2 0  2588
2 52272  53.1586 326.2420 0001046  82.7789  36.8672 15.31676141    17

Track STARLINK-3781 in real time with AllMySat

Download on the App Store